Dewpoint
34 29 32 29 25 22 19 17 19 20 29 28 27 27 28 29 33 33 34 35 36 37 39 40 41 42 42 44 45 45 44 44 44 42 44 42 43 51 63 64 65 66 65 66
30 27 27 28 27 25 22 22 22 28 29 28 28 28 30 30 33 34 35 36 38 39 39 40 40 41 41 42 44 45 45 44 44 44 44 45 44 51 59 63 63 65 65 65
29 29 27 26 27 25 23 22 24 26 30 30 30 30 32 33 34 35 36 37 37 39 40 40 39 40 41 42 42 44 47 46 46 45 47 47 47 53 56 58 61 63 65 65
28 28 26 28 24 26 24 27 28 29 29 23 30 20 31 33 32 35 36 36 38 40 41 41 41 41 43 43 43 44 46 49 47 47 47 45 45 49 55 57 58 62 63 64
29 30 29 29 29 29 29 32 31 30 28 31 29 24 29 34 31 33 36 37 40 40 41 41 42 43 44 46 44 44 46 49 49 47 46 46 46 47 54 56 58 61 63 64
30 31 32 31 30 32 32 31 32 30 30 21 27 26 28 32 32 34 37 38 40 40 41 41 42 43 43 44 47 48 47 50 51 48 46 45 46 48 52 53 56 58 60 62
32 33 34 33 31 33 32 30 21 25 23 20 30 28 28 34 34 36 37 38 40 40 39 39 41 42 42 43 45 47 50 51 52 49 47 45 46 48 49 52 54 56 57 59
30 29 33 34 33 33 33 32 27 20 23 25 29 25 30 36 37 38 38 39 39 38 39 39 41 42 42 42 44 47 50 52 51 51 47 46 47 49 49 51 53 56 56 58
30 29 34 34 34 35 35 32 36 29 28 27 27 33 35 36 37 38 37 38 38 38 38 38 40 41 42 42 43 48 51 51 52 53 51 51 51 52 52 52 52 54 54 57
31 28 31 36 37 37 35 37 31 33 22 21 27 29 29 33 35 37 37 38 37 37 37 37 38 41 42 42 42 44 45 47 48 48 48 47 47 48 48 48 48 49 49 50
33 31 31 35 34 34 35 34 34 33 30 26 22 26 37 34 35 37 37 38 36 34 35 36 38 40 42 42 41 41 42 43 44 45 45 44 44 44 44 44 44 44 44 46
34 31 27 29 32 33 33 33 33 30 29 29 27 26 37 36 38 38 37 37 35 33 34 35 36 37 39 41 40 38 39 39 40 41 41 41 40 39 39 38 38 38 38 38
34 31 25 26 28 32 31 32 33 31 31 27 27 27 37 36 37 37 36 35 34 31 32 33 34 35 35 36 40 39 37 36 37 37 37 38 37 36 37 37 37 36 35 34
37 31 28 23 24 27 27 29 34 32 30 26 27 27 34 36 35 36 36 35 35 31 31 33 34 34 35 34 33 35 38 37 35 36 35 35 35 35 34 33 34 36 36 34
34 28 28 29 28 28 26 25 28 31 30 29 29 30 31 32 35 35 35 35 34 31 31 32 33 33 33 33 32 30 28 29 29 29 30 31 33 34 34 33 31 30 33 35
31 27 28 25 25 26 24 24 24 25 29 31 31 30 31 32 34 34 34 34 34 33 31 32 32 32 32 31 30 29 28 28 28 27 28 29 31 31 33 33 33 32 32 29
27 28 25 23 27 25 19 20 20 24 26 24 23 26 32 33 33 33 34 34 34 35 32 32 32 31 31 31 31 29 27 26 25 26 27 28 27 30 31 32 31 31 31 30
30 28 27 24 25 13 21 26 27 26 25 24 25 29 29 30 34 35 37 35 35 35 34 33 33 32 32 31 30 28 26 25 23 22 23 24 25 25 26 27 26 26 26 27
32 30 26 22 20 19 19 19 23 25 24 24 24 24 25 29 37 36 37 36 35 36 35 34 34 34 33 32 30 26 25 24 23 23 22 23 24 24 26 26 26 27 26 27
30 31 27 24 19 13 15 24 26 26 20 26 27 27 30 31 31 32 36 38 37 37 35 35 35 34 33 31 27 25 23 22 22 22 23 23 24 24 25 25 26 26 25 25
26 27 26 25 22 22 23 26 26 19 18 26 27 28 28 29 32 34 35 37 37 37 35 35 35 34 32 28 25 23 21 21 22 22 22 22 22 21 23 23 24 24 23 23
22 23 23 23 21 17 26 25 21 24 27 27 27 28 29 30 31 32 35 36 37 36 36 36 34 30 27 26 24 22 21 21 20 19 19 19 19 17 19 21 22 22 18 18
19 18 16 19 21 24 26 26 27 28 27 28 28 29 29 30 30 30 32 36 37 36 36 35 31 26 24 22 20 18 18 18 17 15 14 17 16 18 18 19 20 21 18 20
21 22 22 21 19 20 24 26 27 27 27 28 29 30 30 30 30 31 31 35 36 36 36 34 29 24 19 17 17 18 18 15 14 13 15 17 18 19 18 18 20 21 20 22
24 25 23 23 23 23 23 25 26 28 29 30 30 30 30 31 31 32 33 35 36 36 36 32 28 24 20 19 19 19 18 16 14 15 16 18 18 19 19 19 19 20 23 25
27 24 23 21 22 23 23 28 30 30 30 31 30 30 30 29 31 32 33 35 36 36 32 29 26 22 20 20 20 19 18 17 15 14 17 19 19 20 20 20 21 24 25 25
Lifted_Index
6 6 6 6 7 6 6 5 5 6 7 6 5 5 6 6 6 7 7 8 9 9 9 10 10 10 10 10 9 9 9 9 10 10 10 11 10 7 3 0 -1 -2 -2 -2
6 6 6 7 7 6 6 5 5 6 6 6 5 5 5 6 6 7 7 8 8 9 9 9 9 10 10 10 10 9 8 9 9 9 10 10 9 7 3 1 -0 -1 -2 -2
5 6 7 7 7 6 6 5 5 6 6 5 5 4 5 6 6 7 7 8 8 8 8 8 9 9 9 10 10 9 8 7 8 8 9 9 8 7 4 2 1 -0 -1 -2
6 7 7 7 7 6 6 6 6 6 5 5 4 4 4 5 6 6 7 7 8 8 8 8 9 9 9 9 10 9 7 6 6 6 7 7 7 6 4 3 2 0 -1 -2
6 7 7 7 6 6 6 6 6 6 5 4 4 4 4 5 5 5 6 7 7 8 8 9 9 9 9 9 10 9 7 5 4 5 5 6 6 6 4 3 2 0 -1 -1
6 6 6 6 6 6 6 6 5 5 4 3 3 3 3 4 4 5 6 6 7 8 9 9 10 9 9 9 9 8 6 4 3 3 4 4 4 4 4 3 2 1 0 -0
5 5 6 6 6 5 5 5 3 2 2 2 2 3 3 3 4 5 6 7 8 9 9 10 10 10 9 8 8 7 6 4 3 2 2 3 3 3 3 3 2 2 1 0
4 4 5 5 5 4 4 4 2 1 1 2 2 2 3 4 5 6 6 7 8 9 10 10 11 10 9 8 7 6 5 4 3 2 2 2 2 2 2 2 2 1 1 1
4 4 4 4 4 4 3 3 3 2 2 1 2 2 3 4 5 5 6 7 8 9 10 11 11 11 10 9 7 5 4 3 2 1 1 1 1 1 1 1 1 1 1 0
4 4 4 4 4 4 3 3 3 3 2 1 1 2 2 3 4 4 5 7 8 9 10 11 11 11 10 9 7 5 4 3 2 2 1 1 0 0 0 1 1 0 0 0
4 4 3 4 4 4 4 3 3 3 2 1 1 2 3 3 4 4 5 7 8 9 10 11 11 11 10 9 7 6 4 3 3 2 1 1 1 1 1 1 1 1 1 1
4 4 3 3 4 4 4 4 4 4 3 2 2 2 3 4 4 5 6 8 8 9 10 11 12 11 11 10 8 7 6 5 5 4 3 2 1 2 2 2 2 2 2 2
5 5 4 3 4 5 5 5 5 4 3 3 2 2 3 4 4 5 6 8 8 9 10 11 12 12 11 11 10 9 8 8 7 6 5 4 4 4 4 4 4 4 4 5
6 5 5 4 5 5 5 5 5 4 3 2 2 3 3 3 4 5 6 7 8 9 9 10 11 12 12 11 11 11 10 10 9 9 8 7 7 7 7 7 7 7 8 8
6 5 5 5 5 6 5 6 5 4 3 3 3 3 3 4 4 4 5 6 7 8 8 9 10 10 11 11 11 11 12 12 12 11 11 11 11 11 10 11 11 11 11 11
7 6 5 5 5 5 5 5 6 6 5 5 5 5 5 5 4 4 5 6 7 7 8 8 9 9 10 11 11 11 12 13 14 14 14 14 15 15 15 15 15 15 15 15
8 7 6 5 5 5 4 5 6 7 7 7 7 7 6 6 5 5 5 5 6 7 7 8 8 8 9 10 11 11 12 13 14 15 16 17 18 18 18 18 18 18 18 18
8 8 6 5 4 4 5 6 7 7 8 8 8 8 7 7 6 6 6 6 6 7 7 7 7 8 9 10 11 11 12 13 14 16 17 18 19 19 19 19 20 20 20 20
9 8 7 5 3 3 5 7 8 7 7 8 8 8 8 8 7 6 6 6 6 6 7 7 7 8 9 10 10 11 12 12 14 16 18 19 19 19 19 20 20 20 20 20
9 8 7 5 3 3 5 8 8 7 7 8 9 9 9 9 8 7 7 6 6 7 7 7 7 8 9 10 10 11 11 12 14 16 18 20 20 20 20 20 21 21 21 21
8 7 6 5 4 4 7 9 9 7 7 9 10 11 11 10 10 9 8 7 7 7 7 7 7 8 9 10 10 11 11 12 14 17 19 20 20 20 21 21 21 21 21 21
7 7 6 6 5 6 8 10 9 9 10 11 11 12 12 12 12 11 10 9 8 8 7 7 7 8 9 10 10 11 11 12 15 17 18 19 20 20 20 20 20 20 20 20
8 8 8 7 7 8 10 11 11 11 11 12 12 12 13 13 13 13 12 10 9 8 8 7 7 8 8 9 10 11 12 13 15 17 18 19 20 20 20 20 19 19 19 19
9 9 9 8 9 10 11 11 12 12 12 12 12 13 13 13 14 14 13 12 10 9 8 8 7 8 8 9 10 11 12 14 16 17 18 19 19 19 19 19 19 19 19 19
9 9 8 8 9 10 11 11 12 12 12 12 13 13 13 14 14 14 13 12 11 10 9 9 8 8 8 9 10 11 13 15 16 17 18 19 19 19 19 19 19 19 20 20
8 8 7 7 9 10 11 11 12 12 12 12 12 13 13 14 14 14 13 12 11 11 10 10 9 8 8 8 9 11 13 15 16 17 18 18 19 19 19 19 19 20 20 21